DW7281 Weather Reports


time (UTC)temp
F
wind
direction
speed
knots
gust
knots
rain 1hr
in
rain 24hr
in
rain mn
in
humidity
%
barometer
mb
20260507090058 54 155 5.2 12.2 0.00 0.09 0.00 61 1021.0
20260507084553 54 188 3.5 13.0 0.00 0.09 0.00 62 1021.1
20260507083055 55 178 5.2 9.6 0.00 0.09 0.00 61 1020.9
20260507081552 56 170 3.5 8.7 0.00 0.09 0.00 60 1020.8
20260507074550 57 184 5.2 11.3 0.00 0.20 0.00 56 1020.7
20260507073051 58 240 4.3 12.2 0.00 0.20 0.00 56 1020.5
20260507071546 59 167 5.2 11.3 0.00 0.20 0.00 55 1020.2
20260507070058 60 199 6.1 13.0 0.00 0.20 0.00 53 1020.0
20260507064612 61 200 6.1 13.0 0.00 0.21 0.00 52 1019.9
20260507063043 62 187 6.1 13.0 0.00 0.21 0.00 50 1019.8
20260507061546 62 218 5.2 13.9 0.00 0.21 0.00 50 1019.6
20260507060109 62 211 6.1 13.9 0.00 0.21 0.00 48 1019.7
20260507054552 63 204 7.0 13.0 0.00 0.21 0.00 45 1019.5
20260507053045 63 207 5.2 12.2 0.00 0.21 0.00 47 1019.5
20260507051559 64 197 5.2 13.0 0.00 0.21 0.00 45 1019.4
20260507050047 64 230 6.1 16.5 0.00 0.21 0.00 46 1019.4
20260507044550 65 181 7.0 16.5 0.00 0.21 0.00 45 1019.5
20260507043045 66 204 7.0 16.5 0.00 0.21 0.00 45 1019.5
20260507041545 68 156 6.1 17.4 0.00 0.21 0.00 43 1019.5
20260507040045 66 185 7.0 14.8 0.00 0.21 0.00 47 1019.3
20260507034544 66 198 6.1 13.9 0.00 0.21 0.00 47 1019.7
20260507033040 65 192 6.1 20.0 0.00 0.21 0.00 48 1019.6
20260507031547 66 207 7.0 15.6 0.00 0.21 0.00 49 1019.9
20260507030046 67 210 5.2 19.1 0.00 0.21 0.00 49 1019.8
20260507024551 66 163 5.2 13.9 0.00 0.21 0.00 50 1019.9
20260507023051 66 190 7.0 15.6 0.00 0.21 0.00 50 1020.3
20260507021551 66 221 6.1 14.8 0.00 0.21 0.00 53 1020.5
20260507014559 67 218 5.2 13.9 0.00 0.21 0.00 54 1020.9
20260507013047 66 221 6.1 11.3 0.00 0.21 0.00 53 1020.8
20260507011552 66 203 5.2 12.2 0.00 0.21 0.00 55 1021.0
20260507010059 65 184 5.2 15.6 0.00 0.21 0.00 58 1021.4
20260507004550 64 220 5.2 10.4 0.00 0.21 0.00 58 1021.5
20260507003040 64 216 5.2 12.2 0.00 0.21 0.00 58 1021.6
20260507001554 63 167 4.3 13.0 0.00 0.21 0.00 61 1021.8
20260507000049 62 151 6.1 14.8 0.00 0.21 0.00 62 1021.8
20260506234547 61 192 5.2 15.6 0.00 0.21 0.00 64 1021.9
20260506233045 61 163 7.0 14.8 0.00 0.21 0.00 62 1022.0
20260506231602 61 172 2.6 13.0 0.00 0.21 0.00 65 1021.9
20260506224550 61 162 3.5 9.6 0.00 0.21 0.00 67 1021.8
20260506223049 59 148 2.6 10.4 0.00 0.21 0.00 69 1021.8
20260506221605 58 157 2.6 7.8 0.00 0.21 0.00 72 1021.8
20260506220100 56 181 2.6 7.8 0.00 0.21 0.00 78 1021.5
20260506214547 55 168 2.6 7.8 0.00 0.21 0.00 80 1021.4
20260506213105 55 0 0.0 6.1 0.00 0.21 0.00 83 1021.3
20260506211548 53 167 1.7 7.0 0.00 0.21 0.00 90 1021.2
20260506210055 51 174 1.7 6.1 0.00 0.21 0.00 93 1021.2
20260506204545 52 164 2.6 7.8 0.00 0.21 0.00 93 1021.1
20260506203044 54 182 3.5 8.7 0.00 0.21 0.00 93 1020.9
20260506201548 56 0 0.9 6.1 0.00 0.21 0.00 93 1020.7
20260506200051 57 0 0.0 5.2 0.00 0.21 0.00 94 1020.6
20260506194550 58 163 0.9 6.1 0.00 0.21 0.00 94 1020.6
20260506193047 58 196 1.7 4.3 0.00 0.21 0.00 94 1020.5
20260506191550 58 185 0.9 4.3 0.00 0.21 0.00 94 1020.3
20260506190044 58 0 0.9 4.3 0.00 0.21 0.00 94 1020.1
20260506184556 58 0 0.0 4.3 0.00 0.21 0.00 94 1020.2
20260506183048 58 0 0.0 5.2 0.00 0.20 0.00 94 1020.1
20260506181546 58 0 0.0 4.3 0.00 0.20 0.00 94 1020.2
20260506180047 57 197 1.7 5.2 0.00 0.20 0.00 93 1020.3
20260506174549 57 0 0.0 0.0 0.00 0.20 0.00 93 1019.9
20260506173049 57 0 0.0 0.0 0.00 0.20 0.00 93 1019.9
20260506171600 57 0 0.0 0.0 0.00 0.20 0.00 93 1020.1
20260506170056 58 0 0.0 0.0 0.00 0.20 0.00 93 1020.0
20260506164548 59 0 0.0 0.0 0.00 0.20 0.00 93 1020.3
20260506163048 59 0 0.0 0.0 0.00 0.20 0.00 93 1020.3
20260506161546 59 0 0.0 0.0 0.00 0.20 0.00 93 1020.5
20260506160059 59 0 0.0 0.0 0.00 0.20 0.00 93 1020.8
20260506154543 59 0 0.0 0.0 0.00 0.20 0.00 93 1020.6
20260506153047 59 0 0.0 3.5 0.00 0.20 0.00 93 1020.7
20260506151547 60 0 0.0 2.6 0.00 0.20 0.00 93 1020.9
20260506150053 60 23 0.0 0.0 0.00 0.20 0.00 93 1021.0
20260506144559 60 0 0.0 4.3 0.00 0.20 0.00 92 1021.0
20260506143051 60 0 0.0 4.3 0.00 0.20 0.00 92 1021.0
20260506141549 60 26 0.0 6.1 0.00 0.20 0.00 92 1021.0
20260506140050 60 0 0.0 3.5 0.00 0.20 0.00 92 1021.1
20260506134546 60 0 0.0 4.3 0.00 0.20 0.20 92 1021.3
20260506133044 60 0 0.0 7.8 0.03 0.20 0.20 92 1021.2
20260506131552 60 46 1.7 7.0 0.06 0.20 0.20 92 1021.4
20260506130046 60 51 0.9 7.0 0.08 0.20 0.20 92 1021.6
20260506124540 60 0 0.9 5.2 0.07 0.19 0.19 91 1021.6
20260506123052 60 0 0.9 7.0 0.05 0.17 0.17 91 1021.8
20260506121557 60 0 0.0 4.3 0.01 0.13 0.13 91 1022.2
20260506120053 60 15 1.7 7.8 0.00 0.11 0.11 91 1022.0
20260506114553 61 0 1.7 8.7 0.00 0.11 0.11 91 1022.0
20260506113046 61 32 0.9 6.1 0.00 0.11 0.11 91 1022.0
20260506111548 61 0 0.9 7.0 0.00 0.11 0.11 91 1021.9
20260506110046 61 55 0.9 6.1 0.00 0.11 0.11 91 1021.9
20260506104546 61 23 0.9 8.7 0.00 0.11 0.11 91 1021.8
20260506103052 61 33 0.9 6.1 0.00 0.11 0.11 91 1021.9
20260506101549 61 0 1.7 6.1 0.00 0.11 0.11 91 1022.0
20260506100103 61 344 0.9 5.2 0.00 0.11 0.11 91 1022.0
20260506094549 61 15 1.7 7.0 0.00 0.11 0.11 90 1021.8
20260506093048 62 34 0.9 4.3 0.00 0.11 0.11 90 1021.6
20260506091553 62 51 0.9 7.0 0.00 0.11 0.11 90 1021.6